18/04/2024 15:45:00,1.051
18/04/2024 16:00:00,1.039
18/04/2024 16:15:00,1.034
18/04/2024 16:30:00,1.035
18/04/2024 16:45:00,1.034
18/04/2024 17:00:00,1.04
18/04/2024 17:15:00,1.031
18/04/2024 17:30:00,1.03
18/04/2024 17:45:00,1.031
18/04/2024 18:00:00,1.027
18/04/2024 18:15:00,1.028
18/04/2024 18:30:00,1.023
18/04/2024 18:45:00,1.028
18/04/2024 19:00:00,1.024
18/04/2024 19:15:00,1.026
18/04/2024 19:30:00,1.019
18/04/2024 19:45:00,1.023
18/04/2024 20:00:00,1.02
18/04/2024 20:15:00,1.022
18/04/2024 20:30:00,1.02
18/04/2024 20:45:00,1.015
18/04/2024 21:00:00,1.011
18/04/2024 21:15:00,1.013
18/04/2024 21:30:00,1.012
18/04/2024 21:45:00,1.015
18/04/2024 22:00:00,1.007
18/04/2024 22:15:00,1.012
18/04/2024 22:30:00,1.01
18/04/2024 22:45:00,1.012
18/04/2024 23:00:00,1.01
18/04/2024 23:15:00,1.005
18/04/2024 23:30:00,1.01
18/04/2024 23:45:00,1.01
19/04/2024 00:00:00,1.012
19/04/2024 00:15:00,1.01
19/04/2024 00:30:00,1.01
19/04/2024 00:45:00,1.008
19/04/2024 01:00:00,1.007
19/04/2024 01:15:00,1.01
19/04/2024 01:30:00,1.006
19/04/2024 01:45:00,1.007
19/04/2024 02:00:00,1.012
19/04/2024 02:15:00,1.015
19/04/2024 02:30:00,1.015
19/04/2024 02:45:00,1.02
19/04/2024 03:00:00,1.023
19/04/2024 03:15:00,1.023
19/04/2024 03:30:00,1.029
19/04/2024 03:45:00,1.034
19/04/2024 04:00:00,1.039
19/04/2024 04:15:00,1.045
19/04/2024 04:30:00,1.042
19/04/2024 04:45:00,1.054
19/04/2024 05:00:00,1.053
19/04/2024 05:15:00,1.048
19/04/2024 05:30:00,1.062
19/04/2024 05:45:00,1.059
19/04/2024 06:00:00,1.056
19/04/2024 06:15:00,1.061
19/04/2024 06:30:00,1.056
19/04/2024 06:45:00,1.055
19/04/2024 07:00:00,1.053
19/04/2024 07:15:00,1.055
19/04/2024 07:30:00,1.059
19/04/2024 07:45:00,1.054
19/04/2024 08:00:00,1.065
19/04/2024 08:15:00,1.066
19/04/2024 08:30:00,1.066
19/04/2024 08:45:00,1.065
19/04/2024 09:00:00,1.073
19/04/2024 09:15:00,1.076
19/04/2024 09:30:00,1.076
19/04/2024 09:45:00,1.086
19/04/2024 10:00:00,1.089
19/04/2024 10:15:00,1.093
19/04/2024 10:30:00,1.096
19/04/2024 10:45:00,1.102
19/04/2024 11:00:00,1.104
19/04/2024 11:15:00,1.105
19/04/2024 11:30:00,1.102
19/04/2024 11:45:00,1.109
19/04/2024 12:00:00,1.109
19/04/2024 12:15:00,1.107
19/04/2024 12:30:00,1.111
19/04/2024 12:45:00,1.114
19/04/2024 13:00:00,1.109
19/04/2024 13:15:00,1.115
19/04/2024 13:30:00,1.107
19/04/2024 13:45:00,1.104
19/04/2024 14:00:00,1.106
19/04/2024 14:15:00,1.111
19/04/2024 14:30:00,1.1
19/04/2024 14:45:00,1.104
19/04/2024 15:00:00,1.1
19/04/2024 15:15:00,1.102
19/04/2024 15:30:00,1.092
19/04/2024 15:45:00,1.09
19/04/2024 16:00:00,1.095
19/04/2024 16:15:00,1.094
19/04/2024 16:30:00,1.089
19/04/2024 16:45:00,1.086
19/04/2024 17:00:00,1.09
19/04/2024 17:15:00,1.082
19/04/2024 17:30:00,1.082
19/04/2024 17:45:00,1.082
19/04/2024 18:00:00,1.082
19/04/2024 18:15:00,1.077
19/04/2024 18:30:00,1.082
19/04/2024 18:45:00,1.07
19/04/2024 19:00:00,1.076
19/04/2024 19:15:00,1.074
19/04/2024 19:30:00,1.068
19/04/2024 19:45:00,1.068
19/04/2024 20:00:00,1.067
19/04/2024 20:15:00,1.064
19/04/2024 20:30:00,1.067
19/04/2024 20:45:00,1.061
19/04/2024 21:00:00,1.056
19/04/2024 21:15:00,1.053
19/04/2024 21:30:00,1.054
19/04/2024 21:45:00,1.053
19/04/2024 22:00:00,1.05
19/04/2024 22:15:00,1.039
19/04/2024 22:30:00,1.039
19/04/2024 22:45:00,1.045
19/04/2024 23:00:00,1.038
19/04/2024 23:15:00,1.031
19/04/2024 23:30:00,1.031
19/04/2024 23:45:00,1.03
20/04/2024 00:00:00,1.026
20/04/2024 00:15:00,1.03
20/04/2024 00:30:00,1.028
20/04/2024 00:45:00,1.02
20/04/2024 01:00:00,1.016
20/04/2024 01:15:00,1.016
20/04/2024 01:30:00,1.011
20/04/2024 01:45:00,1.016
20/04/2024 02:00:00,1.007
20/04/2024 02:15:00,1.005
20/04/2024 02:30:00,1.003
20/04/2024 02:45:00,1.002
20/04/2024 03:00:00,0.999
20/04/2024 03:15:00,0.997
20/04/2024 03:30:00,0.999
20/04/2024 03:45:00,0.992
20/04/2024 04:00:00,0.992
20/04/2024 04:15:00,0.99
20/04/2024 04:30:00,0.99
20/04/2024 04:45:00,0.988
20/04/2024 05:00:00,0.988
20/04/2024 05:15:00,0.989
20/04/2024 05:30:00,0.987
20/04/2024 05:45:00,0.986
20/04/2024 06:00:00,0.985
20/04/2024 06:15:00,0.985
20/04/2024 06:30:00,0.983
20/04/2024 06:45:00,0.983
20/04/2024 07:00:00,0.98
20/04/2024 07:15:00,0.979
20/04/2024 07:30:00,0.979
20/04/2024 07:45:00,0.98
20/04/2024 08:00:00,0.976
20/04/2024 08:15:00,0.976
20/04/2024 08:30:00,0.975
20/04/2024 08:45:00,0.974
20/04/2024 09:00:00,0.972
20/04/2024 09:15:00,0.974
20/04/2024 09:30:00,0.97
20/04/2024 09:45:00,0.969
20/04/2024 10:00:00,0.969
20/04/2024 10:15:00,0.969
20/04/2024 10:30:00,0.966
20/04/2024 10:45:00,0.966
20/04/2024 11:00:00,0.965
20/04/2024 11:15:00,0.965
20/04/2024 11:30:00,0.964
20/04/2024 11:45:00,0.963
20/04/2024 12:00:00,0.963
20/04/2024 12:15:00,0.962
20/04/2024 12:30:00,0.963
20/04/2024 12:45:00,0.961
20/04/2024 13:00:00,0.958
20/04/2024 13:15:00,0.957
20/04/2024 13:30:00,0.955
20/04/2024 13:45:00,0.955
20/04/2024 14:00:00,0.955
20/04/2024 14:15:00,0.955
20/04/2024 14:30:00,0.954
20/04/2024 14:45:00,0.953
20/04/2024 15:00:00,0.953
20/04/2024 15:15:00,0.952
20/04/2024 15:30:00,0.951
20/04/2024 15:45:00,0.951
20/04/2024 16:00:00,0.95
20/04/2024 16:15:00,0.95
20/04/2024 16:30:00,0.95
20/04/2024 16:45:00,0.95
20/04/2024 17:00:00,0.948
20/04/2024 17:15:00,0.948
20/04/2024 17:30:00,0.948
20/04/2024 17:45:00,0.948
20/04/2024 18:00:00,0.947
20/04/2024 18:15:00,0.947
20/04/2024 18:30:00,0.946
20/04/2024 18:45:00,0.946
20/04/2024 19:00:00,0.946
20/04/2024 19:15:00,0.945
20/04/2024 19:30:00,0.944
20/04/2024 19:45:00,0.944
20/04/2024 20:00:00,0.944
20/04/2024 20:15:00,0.943
20/04/2024 20:30:00,0.942
20/04/2024 20:45:00,0.942
20/04/2024 21:00:00,0.941
20/04/2024 21:15:00,0.941
20/04/2024 21:30:00,0.94
20/04/2024 21:45:00,0.939
20/04/2024 22:00:00,0.939
20/04/2024 22:15:00,0.937
20/04/2024 22:30:00,0.937
20/04/2024 22:45:00,0.937
20/04/2024 23:00:00,0.936
20/04/2024 23:15:00,0.936
20/04/2024 23:30:00,0.935
20/04/2024 23:45:00,0.935
21/04/2024 00:00:00,0.934
21/04/2024 00:15:00,0.934
21/04/2024 00:30:00,0.934
21/04/2024 00:45:00,0.934
21/04/2024 01:00:00,0.933
21/04/2024 01:15:00,0.933
21/04/2024 01:30:00,0.933
21/04/2024 01:45:00,0.933
21/04/2024 02:00:00,0.933
21/04/2024 02:15:00,0.932
21/04/2024 02:30:00,0.932
21/04/2024 02:45:00,0.932
21/04/2024 03:00:00,0.931
21/04/2024 03:15:00,0.931
21/04/2024 03:30:00,0.93
21/04/2024 03:45:00,0.93
21/04/2024 04:00:00,0.93
21/04/2024 04:15:00,0.929
21/04/2024 04:30:00,0.929
21/04/2024 04:45:00,0.928
21/04/2024 05:00:00,0.928
21/04/2024 05:15:00,0.926
21/04/2024 05:30:00,0.926
21/04/2024 05:45:00,0.926
21/04/2024 06:00:00,0.926
21/04/2024 06:15:00,0.926
21/04/2024 06:30:00,0.925
21/04/2024 06:45:00,0.925
21/04/2024 07:00:00,0.925
21/04/2024 07:15:00,0.924
21/04/2024 07:30:00,0.924
21/04/2024 07:45:00,0.924
21/04/2024 08:00:00,0.924
21/04/2024 08:15:00,0.923
21/04/2024 08:30:00,0.923
21/04/2024 08:45:00,0.923
21/04/2024 09:00:00,0.923
21/04/2024 09:15:00,0.923
21/04/2024 09:30:00,0.923
21/04/2024 09:45:00,0.923
21/04/2024 10:00:00,0.923
21/04/2024 10:15:00,0.922
21/04/2024 10:30:00,0.922
21/04/2024 10:45:00,0.922
21/04/2024 11:00:00,0.922
21/04/2024 11:15:00,0.922
21/04/2024 11:30:00,0.922
21/04/2024 11:45:00,0.922
21/04/2024 12:00:00,0.922
21/04/2024 12:15:00,0.922
21/04/2024 12:30:00,0.922
21/04/2024 12:45:00,0.922
21/04/2024 13:00:00,0.922
21/04/2024 13:15:00,0.922
21/04/2024 13:30:00,0.922
21/04/2024 13:45:00,0.922
21/04/2024 14:00:00,0.922
21/04/2024 14:15:00,0.922
21/04/2024 14:30:00,0.922
21/04/2024 14:45:00,0.922
21/04/2024 15:00:00,0.922
21/04/2024 15:15:00,0.921
21/04/2024 15:30:00,0.921
21/04/2024 15:45:00,0.921
21/04/2024 16:00:00,0.921
21/04/2024 16:15:00,0.921
21/04/2024 16:30:00,0.921
21/04/2024 16:45:00,0.921
21/04/2024 17:00:00,0.921
21/04/2024 17:15:00,0.921
21/04/2024 17:30:00,0.921
21/04/2024 17:45:00,0.921
21/04/2024 18:00:00,0.921
21/04/2024 18:15:00,0.921
21/04/2024 18:30:00,0.921
21/04/2024 18:45:00,0.921
21/04/2024 19:00:00,0.921
21/04/2024 19:15:00,0.921
21/04/2024 19:30:00,0.921
21/04/2024 19:45:00,0.921
21/04/2024 20:00:00,0.921
21/04/2024 20:15:00,0.921
21/04/2024 20:30:00,0.921
21/04/2024 20:45:00,0.92
21/04/2024 21:00:00,0.92
21/04/2024 21:15:00,0.92
21/04/2024 21:30:00,0.92
21/04/2024 21:45:00,0.921
21/04/2024 22:00:00,0.921
21/04/2024 22:15:00,0.921
21/04/2024 22:30:00,0.921
21/04/2024 22:45:00,0.921
21/04/2024 23:00:00,0.921
21/04/2024 23:15:00,0.921
21/04/2024 23:30:00,0.922
21/04/2024 23:45:00,0.922
22/04/2024 00:00:00,0.922
22/04/2024 00:15:00,0.923
22/04/2024 00:30:00,0.923
22/04/2024 00:45:00,0.923
22/04/2024 01:00:00,0.923
22/04/2024 01:15:00,0.923
22/04/2024 01:30:00,0.924
22/04/2024 01:45:00,0.924
22/04/2024 02:00:00,0.924
22/04/2024 02:15:00,0.925
22/04/2024 02:30:00,0.925
22/04/2024 02:45:00,0.925
22/04/2024 03:00:00,0.926
22/04/2024 03:15:00,0.926
22/04/2024 03:30:00,0.926
22/04/2024 03:45:00,0.926
22/04/2024 04:00:00,0.926
22/04/2024 04:15:00,0.926
22/04/2024 04:30:00,0.926
22/04/2024 04:45:00,0.926
22/04/2024 05:00:00,0.926
22/04/2024 05:15:00,0.926
22/04/2024 05:30:00,0.926
22/04/2024 05:45:00,0.926
22/04/2024 06:00:00,0.926
22/04/2024 06:15:00,0.926
22/04/2024 06:30:00,0.926
22/04/2024 06:45:00,0.926
22/04/2024 07:00:00,0.926
22/04/2024 07:15:00,0.926
22/04/2024 07:30:00,0.926
22/04/2024 07:45:00,0.926
22/04/2024 08:00:00,0.926
22/04/2024 08:15:00,0.926
22/04/2024 08:30:00,0.926
22/04/2024 08:45:00,0.926
22/04/2024 09:00:00,0.926
22/04/2024 09:15:00,0.925
22/04/2024 09:30:00,0.925
22/04/2024 09:45:00,0.925
22/04/2024 10:00:00,0.925
22/04/2024 10:15:00,0.925
22/04/2024 10:30:00,0.925
22/04/2024 10:45:00,0.925
22/04/2024 11:00:00,0.924
22/04/2024 11:15:00,0.924
22/04/2024 11:30:00,0.924
22/04/2024 11:45:00,0.923
22/04/2024 12:00:00,0.923
22/04/2024 12:15:00,0.923
22/04/2024 12:30:00,0.923
22/04/2024 12:45:00,0.923
22/04/2024 13:00:00,0.923
22/04/2024 13:15:00,0.923
22/04/2024 13:30:00,0.923
22/04/2024 13:45:00,0.923
22/04/2024 14:00:00,0.923
22/04/2024 14:15:00,0.923
22/04/2024 14:30:00,0.923
22/04/2024 14:45:00,0.922
22/04/2024 15:00:00,0.922
22/04/2024 15:15:00,0.921
22/04/2024 15:30:00,0.921
22/04/2024 15:45:00,0.921
22/04/2024 16:00:00,0.92
22/04/2024 16:15:00,0.92
22/04/2024 16:30:00,0.92
22/04/2024 16:45:00,0.919
22/04/2024 17:00:00,0.919
22/04/2024 17:15:00,0.919
22/04/2024 17:30:00,0.919
22/04/2024 17:45:00,0.918
22/04/2024 18:00:00,0.918
22/04/2024 18:15:00,0.918
22/04/2024 18:30:00,0.918
22/04/2024 18:45:00,0.916
22/04/2024 19:00:00,0.916
22/04/2024 19:15:00,0.916
22/04/2024 19:30:00,0.915
22/04/2024 19:45:00,0.915
22/04/2024 20:00:00,0.915
22/04/2024 20:15:00,0.914
22/04/2024 20:30:00,0.914
22/04/2024 20:45:00,0.913
22/04/2024 21:00:00,0.912
22/04/2024 21:15:00,0.912
22/04/2024 21:30:00,0.912
22/04/2024 21:45:00,0.912
22/04/2024 22:00:00,0.912
22/04/2024 22:15:00,0.912
22/04/2024 22:30:00,0.912
22/04/2024 22:45:00,0.912
22/04/2024 23:00:00,0.912
22/04/2024 23:15:00,0.912
22/04/2024 23:30:00,0.912
22/04/2024 23:45:00,0.912
23/04/2024 00:00:00,0.912
23/04/2024 00:15:00,0.912
23/04/2024 00:30:00,0.912
23/04/2024 00:45:00,0.911
23/04/2024 01:00:00,0.911
23/04/2024 01:15:00,0.911
23/04/2024 01:30:00,0.911
23/04/2024 01:45:00,0.911
23/04/2024 02:00:00,0.911
23/04/2024 02:15:00,0.911
23/04/2024 02:30:00,0.911
23/04/2024 02:45:00,0.911
23/04/2024 03:00:00,0.912
23/04/2024 03:15:00,0.912
23/04/2024 03:30:00,0.912
23/04/2024 03:45:00,0.912
23/04/2024 04:00:00,0.912
23/04/2024 04:15:00,0.911
23/04/2024 04:30:00,0.911
23/04/2024 04:45:00,0.911
23/04/2024 05:00:00,0.91
23/04/2024 05:15:00,0.91
23/04/2024 05:30:00,0.91
23/04/2024 05:45:00,0.909
23/04/2024 06:00:00,0.909
23/04/2024 06:15:00,0.908
23/04/2024 06:30:00,0.908
23/04/2024 06:45:00,0.907
23/04/2024 07:00:00,0.907
23/04/2024 07:15:00,0.905
23/04/2024 07:30:00,0.905
23/04/2024 07:45:00,0.905
23/04/2024 08:00:00,0.904
23/04/2024 08:15:00,0.903
23/04/2024 08:30:00,0.903
23/04/2024 08:45:00,0.903
23/04/2024 09:00:00,0.902
23/04/2024 09:15:00,0.902
23/04/2024 09:30:00,0.902
23/04/2024 09:45:00,0.901
23/04/2024 10:00:00,0.901
23/04/2024 10:15:00,0.901
23/04/2024 10:30:00,0.901
23/04/2024 10:45:00,0.901
23/04/2024 11:00:00,0.9
23/04/2024 11:15:00,0.9
23/04/2024 11:30:00,0.9
23/04/2024 11:45:00,0.899
23/04/2024 12:00:00,0.899
23/04/2024 12:15:00,0.898
23/04/2024 12:30:00,0.898
23/04/2024 12:45:00,0.898
23/04/2024 13:00:00,0.897
23/04/2024 13:15:00,0.897
23/04/2024 13:30:00,0.897
23/04/2024 13:45:00,0.896
23/04/2024 14:00:00,0.896
23/04/2024 14:15:00,0.894
